This demonstration page uses our WeatherBlox Daily Observations layout. Learn more.

Left ArrowRight Arrow

39.08367, -84.50855

Hourly Observations for May 21, 2019

Temp ( °F °C ) Dew Point ( °F °C ) Humidity (%) Winds ( mph kmh ) Pressure ( in mb ) Visibility ( mi km ) Precip ( " mm )
12:53 am 00:53 Clear 54 12.2 46 7.8 75 75 NE 8 13 30.09 1019 10 16 N/A
1:53 am 01:53 Clear 52 11.1 45 7.2 77 77 N 6 9 30.09 1019 10 16 N/A
2:53 am 02:53 Clear 51 10.6 44 6.7 77 77 NNE 5 7 30.08 1019 10 16 N/A
3:53 am 03:53 Clear 50 10 45 7.2 83 83 NNE 6 9 30.10 1019 10 16 N/A
4:53 am 04:53 Clear 50 10 45 7.2 83 83 VRB 6 9 30.09 1019 10 16 N/A
5:53 am 05:53 Clear 50 10 45 7.2 83 83 VRB 6 9 30.10 1019 10 16 N/A
6:53 am 06:53 Sunny 50 10 44 6.7 80 80 VRB 5 7 30.11 1020 10 16 N/A
7:53 am 07:53 Sunny 51 10.6 45 7.2 80 80 NE 9 15 30.14 1021 10 16 N/A
8:53 am 08:53 Sunny 52 11.1 46 7.8 80 80 VRB 7 11 30.14 1021 10 16 N/A
9:53 am 09:53 Sunny 54 12.2 45 7.2 72 72 E 12 19 30.14 1021 10 16 N/A
10:53 am 10:53 Sunny 57 13.9 45 7.2 64 64 ENE 13 20 30.14 1021 10 16 N/A
11:53 am 11:53 Sunny 59 15 46 7.8 62 62 E 15 24 30.12 1020 10 16 N/A
12:53 pm 12:53 Sunny 62 16.7 47 8.3 58 58 ENE 7 11 30.09 1019 10 16 N/A
1:53 pm 13:53 Sunny 65 18.3 49 9.4 56 56 ESE 8 13 30.08 1019 10 16 N/A
2:53 pm 14:53 Sunny 67 19.4 50 10 55 55 ENE 8 13 30.06 1018 10 16 N/A
3:53 pm 15:53 Mostly Sunny 69 20.6 51 10.6 53 53 E 8 13 30.06 1018 10 16 N/A
4:53 pm 16:53 Mostly Sunny 70 21.1 50 10 49 49 ENE 10 17 30.02 1017 10 16 N/A
5:53 pm 17:53 Sunny 71 21.7 50 10 47 47 ENE 13 20 30.03 1017 10 16 N/A
6:53 pm 18:53 Sunny 70 21.1 49 9.4 47 47 E 13 20 30.03 1017 10 16 N/A
7:53 pm 19:53 Sunny 67 19.4 48 8.9 51 51 ENE 14 22 30.01 1016 10 16 N/A
8:53 pm 20:53 Clear 64 17.8 49 9.4 58 58 VRB 5 7 30.01 1016 10 16 N/A
9:53 pm 21:53 Clear 61 16.1 49 9.4 65 65 ENE 6 9 30.02 1017 10 16 N/A
10:53 pm 22:53 Clear 60 15.6 49 9.4 67 67 NE 6 9 30.04 1017 10 16 N/A
11:53 pm 23:53 Clear 59 15 48 8.9 67 67 VRB 5 7 30.04 1017 10 16 N/A

Powered by AerisWeather